TimePST,TemperatureF,Dew PointF,Humidity,Sea Level PressureIn,VisibilityMPH,Wind Direction,Wind SpeedMPH,Gust SpeedMPH,PrecipitationIn,Events,Conditions,WindDirDegrees,DateUTC
12:52 AM,44.1,12.9,28,30.19,10.0,North,3.5,-,N/A,,Clear,10,2013-02-27 08:52:00
1:52 AM,46.0,17.1,31,30.19,10.0,NW,8.1,-,N/A,,Clear,320,2013-02-27 09:52:00
2:52 AM,44.1,19.0,37,30.19,10.0,Calm,Calm,-,N/A,,Clear,0,2013-02-27 10:52:00
3:52 AM,43.0,19.0,38,30.21,10.0,North,4.6,-,N/A,,Clear,10,2013-02-27 11:52:00
4:52 AM,41.0,19.0,41,30.22,10.0,NW,5.8,-,N/A,,Clear,320,2013-02-27 12:52:00
5:52 AM,41.0,18.0,40,30.23,10.0,NE,5.8,-,N/A,,Clear,40,2013-02-27 13:52:00
6:52 AM,46.0,16.0,30,30.25,10.0,NNE,6.9,-,N/A,,Clear,20,2013-02-27 14:52:00
7:52 AM,55.0,16.0,22,30.29,10.0,North,4.6,-,N/A,,Clear,350,2013-02-27 15:52:00
8:52 AM,59.0,24.1,26,30.30,10.0,West,3.5,-,N/A,,Clear,280,2013-02-27 16:52:00
9:52 AM,64.9,10.9,12,30.29,10.0,Calm,Calm,-,N/A,,Clear,0,2013-02-27 17:52:00
10:52 AM,68.0,9.0,10,30.29,10.0,NW,5.8,-,N/A,,Clear,320,2013-02-27 18:52:00
11:52 AM,70.0,10.0,10,30.26,10.0,West,8.1,-,N/A,,Clear,280,2013-02-27 19:52:00
12:52 PM,71.1,9.0,9,30.24,10.0,Variable,5.8,-,N/A,,Clear,0,2013-02-27 20:52:00
2:52 PM,73.9,1.9,6,30.20,10.0,North,8.1,-,N/A,,Clear,10,2013-02-27 22:52:00
3:52 PM,73.9,1.9,6,30.19,10.0,NNW,12.7,20.7,N/A,,Clear,340,2013-02-27 23:52:00
4:52 PM,71.1,6.1,8,30.19,10.0,NW,9.2,-,N/A,,Clear,320,2013-02-28 00:52:00
5:52 PM,64.0,7.0,11,30.19,10.0,Calm,Calm,-,N/A,,Clear,0,2013-02-28 01:52:00
6:52 PM,57.9,7.0,13,30.21,10.0,Calm,Calm,-,N/A,,Clear,0,2013-02-28 02:52:00
7:52 PM,57.9,8.1,14,30.24,10.0,WSW,5.8,-,N/A,,Clear,250,2013-02-28 03:52:00
8:52 PM,57.9,10.9,16,30.25,10.0,NNW,8.1,-,N/A,,Clear,330,2013-02-28 04:52:00
9:52 PM,63.0,7.0,11,30.28,10.0,WNW,9.2,-,N/A,,Clear,290,2013-02-28 05:52:00
10:52 PM,59.0,8.1,13,30.28,10.0,WNW,10.4,-,N/A,,Clear,290,2013-02-28 06:52:00